Simultaneous Nadir Overpasses (SNOs) Predictions

Prediction of SNOs between LANDSAT-8 and METOP-A Satellite Orbit:

Table of predicted SNOs for the next 14.0 days since TLE Epoch: 3/20/2015
Index Date (LANDSAT-8) Time (LANDSAT-8) Lat,Lon (LANDSAT-8) SZA (LANDSAT-8 ) Date (METOP-A) Time (METOP-A) Lat,Lon (METOP-A) SZA (METOP-A ) Distance(km) Time Diff (sec)
1 03/22/2015 11:01:08 81.09, 53.54 82.27 03/22/2015 10:59:55 81.09, 53.44 82.23 1.72 73
2 03/22/2015 11:50:33 -81.13,-138.17 97.66 03/22/2015 11:50:33 -81.13,-138.06 97.64 1.99 0
3 03/22/2015 12:39:56 81.21, 30.65 82.51 03/22/2015 12:41:10 81.18, 30.58 82.51 3.64 74
4 03/25/2015 06:35:19 81.10, 120.18 81.21 03/25/2015 06:34:15 81.10, 120.04 81.17 2.62 64
5 03/25/2015 07:24:45 -81.12, -71.87 98.76 03/25/2015 07:24:54 -81.13, -71.80 98.75 1.41 9
6
